�������l�o���
Date,Time,MP-1(��Sv/h),MP-2(��Sv/h),MP-3(��Sv/h),MP-4(��Sv/h),MP-5(��Sv/h),MP-6(��Sv/h),MP-7(��Sv/h),MP-8(��Sv/h),����,����(m/s),���J
2017/07/19,00:00,0.962,1.517,1.023,1.822,1.261,0.516,0.953,0.878,�k,3.7,��
2017/07/19,00:10,0.961,1.515,1.024,1.823,1.258,0.520,0.953,0.878,�k,4.1,��
2017/07/19,00:20,0.960,1.519,1.022,1.823,1.258,0.519,0.953,0.878,�k,4.3,��
2017/07/19,00:30,0.961,1.519,1.024,1.822,1.255,0.519,0.952,0.880,�k�k��,3.9,��
2017/07/19,00:40,0.961,1.519,1.023,1.821,1.258,0.518,0.952,0.879,�k,4.8,��
2017/07/19,00:50,0.961,1.518,1.021,1.822,1.260,0.519,0.953,0.877,�k,4.1,��
2017/07/19,01:00,0.958,1.517,1.020,1.821,1.259,0.518,0.952,0.877,�k,4.6,��
2017/07/19,01:10,0.960,1.518,1.022,1.824,1.258,0.518,0.951,0.879,�k,4.9,��
2017/07/19,01:20,0.959,1.519,1.023,1.823,1.259,0.518,0.954,0.878,�k,5.9,��
2017/07/19,01:30,0.957,1.518,1.021,1.822,1.256,0.519,0.952,0.877,�k,4.8,��
2017/07/19,01:40,0.958,1.518,1.023,1.819,1.259,0.518,0.951,0.879,�k,5.8,��
2017/07/19,01:50,0.958,1.519,1.021,1.820,1.259,0.518,0.951,0.878,�k,5.0,��
2017/07/19,02:00,0.958,1.518,1.022,1.825,1.257,0.518,0.953,0.880,�k�k��,4.2,��
2017/07/19,02:10,0.958,1.518,1.023,1.821,1.257,0.517,0.952,0.879,�k�k��,3.3,��
2017/07/19,02:20,0.958,1.520,1.021,1.822,1.258,0.517,0.952,0.879,�k�k��,3.7,��
2017/07/19,02:30,0.959,1.519,1.021,1.823,1.260,0.518,0.953,0.878,�k�k��,4.3,��
2017/07/19,02:40,0.957,1.520,1.022,1.823,1.258,0.518,0.952,0.879,�k�k��,3.7,��
2017/07/19,02:50,0.955,1.521,1.022,1.821,1.256,0.518,0.950,0.878,�k�k��,3.3,��
2017/07/19,03:00,0.957,1.520,1.023,1.823,1.260,0.518,0.954,0.881,�k�k��,2.5,��
2017/07/19,03:10,0.958,1.520,1.023,1.823,1.258,0.518,0.951,0.880,�k�k��,2.5,��
2017/07/19,03:20,0.957,1.520,1.022,1.821,1.261,0.518,0.953,0.877,�k,2.6,��
2017/07/19,03:30,0.958,1.518,1.021,1.824,1.259,0.518,0.952,0.881,�k,1.7,��
2017/07/19,03:40,0.960,1.518,1.023,1.821,1.259,0.518,0.952,0.880,�k,2.3,��
2017/07/19,03:50,0.961,1.518,1.024,1.822,1.257,0.518,0.952,0.880,�k�k��,1.7,��
2017/07/19,04:00,0.959,1.520,1.023,1.825,1.258,0.519,0.952,0.878,�k��,2.2,��
2017/07/19,04:10,0.959,1.521,1.023,1.823,1.259,0.520,0.952,0.879,�k�k��,2.3,��
2017/07/19,04:20,0.959,1.520,1.023,1.824,1.261,0.519,0.951,0.879,�k,2.2,��
2017/07/19,04:30,0.961,1.522,1.020,1.822,1.259,0.518,0.952,0.879,�k,3.1,��
2017/07/19,04:40,0.962,1.521,1.025,1.823,1.259,0.517,0.951,0.881,�k,2.5,��
2017/07/19,04:50,0.960,1.522,1.023,1.822,1.259,0.516,0.950,0.879,�k�k��,1.9,��
2017/07/19,05:00,0.959,1.519,1.022,1.824,1.260,0.517,0.953,0.880,�k,2.6,��
2017/07/19,05:10,0.959,1.520,1.023,1.825,1.261,0.517,0.953,0.880,�k,2.3,��
2017/07/19,05:20,0.962,1.521,1.024,1.822,1.257,0.517,0.952,0.880,�k�k��,2.2,��
2017/07/19,05:30,0.960,1.517,1.023,1.821,1.257,0.518,0.953,0.880,�k�k��,1.5,��
2017/07/19,05:40,0.961,1.522,1.025,1.822,1.260,0.517,0.951,0.880,�k�k��,1.5,��
2017/07/19,05:50,0.962,1.522,1.021,1.825,1.261,0.519,0.953,0.879,�k�k��,1.7,��
2017/07/19,06:00,0.962,1.521,1.023,1.824,1.259,0.517,0.952,0.879,�k,1.7,��
2017/07/19,06:10,0.961,1.522,1.024,1.822,1.262,0.517,0.952,0.880,�k�k��,2.6,��
2017/07/19,06:20,0.962,1.521,1.023,1.824,1.259,0.518,0.952,0.879,�k�k��,2.5,��
2017/07/19,06:30,0.961,1.522,1.022,1.825,1.262,0.518,0.952,0.880,�k,2.5,��
2017/07/19,06:40,0.959,1.521,1.021,1.823,1.262,0.519,0.953,0.879,�k�k��,2.3,��
2017/07/19,06:50,0.959,1.521,1.023,1.825,1.260,0.518,0.954,0.880,�k�k��,2.2,��
2017/07/19,07:00,0.960,1.521,1.023,1.827,1.258,0.516,0.952,0.878,�k�k��,2.6,��
2017/07/19,07:10,0.961,1.520,1.022,1.827,1.260,0.517,0.952,0.877,�k�k��,3.1,��
2017/07/19,07:20,0.962,1.521,1.022,1.825,1.260,0.519,0.954,0.877,�k�k��,3.6,��
2017/07/19,07:30,0.962,1.520,1.023,1.824,1.259,0.516,0.952,0.879,�k,3.3,��
2017/07/19,07:40,0.960,1.521,1.022,1.823,1.260,0.517,0.953,0.878,�k,2.8,��
2017/07/19,07:50,0.961,1.517,1.020,1.827,1.260,0.517,0.954,0.876,�k,3.0,��
2017/07/19,08:00,0.961,1.522,1.023,1.824,1.259,0.517,0.954,0.877,�k�k��,2.6,��
2017/07/19,08:10,0.961,1.521,1.024,1.823,1.260,0.517,0.952,0.878,�k�k��,2.6,��
2017/07/19,08:20,0.961,1.520,1.022,1.825,1.261,0.518,0.955,0.878,�k�k��,2.8,��
2017/07/19,08:30,0.964,1.521,1.022,1.825,1.266,0.516,0.955,0.878,�k�k��,2.5,��
2017/07/19,08:40,0.963,1.524,1.022,1.827,1.263,0.518,0.955,0.878,�k�k��,3.1,��
2017/07/19,08:50,0.964,1.520,1.023,1.828,1.266,0.516,0.954,0.877,�k�k��,3.0,��
2017/07/19,09:00,0.963,1.524,1.022,1.830,1.262,0.518,0.955,0.879,�k��,2.9,��
2017/07/19,09:10,0.966,1.526,1.024,1.829,1.264,0.518,0.954,0.878,�k��,3.9,��
2017/07/19,09:20,0.966,1.526,1.023,1.831,1.265,0.519,0.952,0.879,���k��,2.3,��
2017/07/19,09:30,0.968,1.525,1.023,1.831,1.265,0.517,0.954,0.880,���k��,3.1,��
2017/07/19,09:40,0.968,1.525,1.027,1.828,1.266,0.518,0.955,0.879,�k��,3.7,��
2017/07/19,09:50,0.966,1.529,1.025,1.833,1.267,0.519,0.953,0.880,�k��,4.2,��
2017/07/19,10:00,0.965,1.529,1.025,1.833,1.268,0.519,0.956,0.879,�k��,3.7,��
2017/07/19,10:10,0.968,1.530,1.025,1.831,1.267,0.519,0.956,0.879,�k��,3.7,��
2017/07/19,10:20,0.971,1.529,1.027,1.832,1.266,0.519,0.957,0.879,�k��,3.8,��
2017/07/19,10:30,0.968,1.529,1.026,1.833,1.268,0.520,0.955,0.879,�k��,3.7,��
2017/07/19,10:40,0.969,1.535,1.026,1.834,1.270,0.520,0.956,0.878,�k�k��,3.1,��
2017/07/19,10:50,0.970,1.531,1.025,1.832,1.272,0.520,0.955,0.879,�k��,3.4,��
2017/07/19,11:00,0.963,1.531,1.026,1.833,1.275,0.522,0.956,0.879,�k��,3.3,��
2017/07/19,11:10,0.962,1.532,1.027,1.834,1.274,0.520,0.957,0.879,�k�k��,4.2,��
2017/07/19,11:20,0.970,1.532,1.027,1.831,1.272,0.523,0.957,0.880,�k��,5.0,��
2017/07/19,11:30,0.971,1.527,1.029,1.833,1.272,0.522,0.957,0.880,�k��,4.2,��
2017/07/19,11:40,0.973,1.532,1.027,1.830,1.275,0.522,0.956,0.882,�k��,3.9,��
2017/07/19,11:50,0.974,1.537,1.028,1.836,1.275,0.523,0.957,0.880,�k��,2.6,��
2017/07/19,12:00,0.974,1.537,1.031,1.832,1.274,0.522,0.956,0.879,�k��,2.9,��
2017/07/19,12:10,0.974,1.537,1.029,1.832,1.274,0.522,0.958,0.881,�k��,3.0,��
2017/07/19,12:20,0.976,1.539,1.030,1.832,1.277,0.522,0.958,0.879,���k��,2.2,��
2017/07/19,12:30,0.975,1.534,1.030,1.834,1.276,0.523,0.958,0.882,��,2.8,��
2017/07/19,12:40,0.974,1.538,1.031,1.836,1.278,0.524,0.957,0.880,��,2.0,��
2017/07/19,12:50,0.974,1.538,1.029,1.834,1.278,0.523,0.958,0.881,���쓌,2.6,��
2017/07/19,13:00,0.977,1.540,1.031,1.837,1.276,0.523,0.958,0.881,���쓌,2.3,��
2017/07/19,13:10,0.976,1.541,1.030,1.834,1.279,0.524,0.956,0.881,���쓌,1.7,��
2017/07/19,13:20,0.975,1.542,1.032,1.837,1.281,0.523,0.958,0.881,���쓌,2.2,��
2017/07/19,13:30,0.978,1.539,1.032,1.836,1.281,0.524,0.959,0.881,���쓌,2.8,��
2017/07/19,13:40,0.978,1.543,1.031,1.834,1.280,0.524,0.959,0.882,��,2.6,��
2017/07/19,13:50,0.977,1.543,1.033,1.836,1.281,0.522,0.958,0.882,��,2.2,��
2017/07/19,14:00,0.976,1.543,1.034,1.839,1.280,0.524,0.958,0.881,���쓌,2.0,��
2017/07/19,14:10,0.976,1.544,1.035,1.840,1.281,0.523,0.957,0.882,���쓌,3.1,��
2017/07/19,14:20,0.977,1.542,1.035,1.840,1.282,0.522,0.955,0.880,���쓌,4.7,��
2017/07/19,14:30,0.978,1.543,1.032,1.839,1.283,0.525,0.957,0.882,���쓌,4.1,��
2017/07/19,14:40,0.977,1.542,1.033,1.839,1.282,0.523,0.957,0.880,���쓌,4.1,��
2017/07/19,14:50,0.980,1.545,1.036,1.836,1.281,0.523,0.957,0.881,���쓌,3.1,��
2017/07/19,15:00,0.978,1.541,1.035,1.837,1.282,0.523,0.958,0.881,���쓌,3.4,��
2017/07/19,15:10,0.978,1.543,1.033,1.840,1.283,0.524,0.960,0.881,���쓌,3.3,��
2017/07/19,15:20,0.976,1.547,1.037,1.836,1.283,0.524,0.958,0.882,�쓌,2.8,��
2017/07/19,15:30,0.979,1.546,1.036,1.837,1.282,0.525,0.958,0.882,�쓌,3.5,��
2017/07/19,15:40,0.980,1.547,1.035,1.842,1.282,0.524,0.957,0.881,�쓌,3.6,��
2017/07/19,15:50,0.980,1.546,1.035,1.839,1.283,0.524,0.958,0.881,�쓌,3.8,��
2017/07/19,16:00,0.979,1.545,1.036,1.840,1.285,0.522,0.956,0.881,��쓌,3.9,��
2017/07/19,16:10,0.979,1.543,1.035,1.839,1.284,0.524,0.959,0.882,��쓌,3.6,��
2017/07/19,16:20,0.978,1.548,1.035,1.841,1.283,0.524,0.960,0.880,��쓌,1.7,��
2017/07/19,16:30,0.982,1.547,1.035,1.841,1.283,0.524,0.959,0.881,��쓌,3.1,��
2017/07/19,16:40,0.981,1.548,1.036,1.840,1.282,0.523,0.957,0.882,�쓌,2.6,��
2017/07/19,16:50,0.981,1.547,1.034,1.842,1.281,0.524,0.959,0.880,��쓌,2.3,��
2017/07/19,17:00,0.981,1.548,1.037,1.846,1.282,0.523,0.958,0.881,��,2.9,��
2017/07/19,17:10,0.981,1.550,1.036,1.845,1.280,0.525,0.959,0.883,��쓌,3.2,��
2017/07/19,17:20,0.978,1.549,1.037,1.844,1.281,0.524,0.958,0.882,��쓌,3.3,��
2017/07/19,17:30,0.980,1.550,1.035,1.846,1.283,0.525,0.960,0.882,��쓌,2.3,��
2017/07/19,17:40,0.980,1.545,1.037,1.846,1.283,0.524,0.961,0.883,��쓌,3.8,��
2017/07/19,17:50,0.979,1.546,1.036,1.846,1.281,0.524,0.958,0.884,�쓌,3.1,��
2017/07/19,18:00,0.978,1.548,1.036,1.846,1.283,0.524,0.958,0.884,��쓌,2.9,��
2017/07/19,18:10,0.980,1.548,1.036,1.843,1.283,0.526,0.960,0.883,��쓌,3.8,��
2017/07/19,18:20,0.979,1.545,1.035,1.845,1.284,0.525,0.961,0.884,��쓌,3.3,��
2017/07/19,18:30,0.983,1.545,1.038,1.846,1.284,0.524,0.959,0.885,��쓌,3.5,��
2017/07/19,18:40,0.981,1.549,1.039,1.847,1.284,0.525,0.960,0.884,��,3.1,��
2017/07/19,18:50,0.984,1.548,1.037,1.847,1.281,0.524,0.959,0.884,��,3.1,��
2017/07/19,19:00,0.980,1.550,1.038,1.847,1.285,0.526,0.959,0.884,��쓌,4.0,��
2017/07/19,19:10,0.981,1.552,1.039,1.846,1.285,0.525,0.959,0.886,��,3.2,��
2017/07/19,19:20,0.979,1.548,1.038,1.848,1.287,0.525,0.960,0.883,��,2.8,��
2017/07/19,19:30,0.980,1.550,1.039,1.845,1.286,0.527,0.959,0.884,��쓌,3.5,��
2017/07/19,19:40,0.983,1.552,1.039,1.847,1.286,0.526,0.958,0.884,��쓌,3.8,��
2017/07/19,19:50,0.980,1.550,1.037,1.844,1.288,0.525,0.959,0.886,��쓌,3.8,��
2017/07/19,20:00,0.982,1.549,1.039,1.846,1.287,0.527,0.960,0.882,��쓌,3.2,��
2017/07/19,20:10,0.980,1.553,1.042,1.844,1.285,0.527,0.960,0.883,��쓌,4.1,��
2017/07/19,20:20,0.980,1.551,1.039,1.845,1.285,0.526,0.961,0.884,��쓌,4.1,��
2017/07/19,20:30,0.980,1.551,1.041,1.842,1.286,0.526,0.957,0.886,��쓌,6.6,��
2017/07/19,20:40,0.981,1.551,1.041,1.844,1.287,0.525,0.958,0.884,��쓌,6.4,��
2017/07/19,20:50,0.980,1.551,1.039,1.847,1.285,0.526,0.960,0.887,��,5.7,��
2017/07/19,21:00,0.981,1.550,1.041,1.845,1.286,0.524,0.959,0.884,��,5.0,��
2017/07/19,21:10,0.981,1.553,1.041,1.844,1.287,0.526,0.960,0.884,��,6.3,��
2017/07/19,21:20,0.980,1.551,1.040,1.844,1.285,0.526,0.961,0.883,��,6.5,��
2017/07/19,21:30,0.980,1.551,1.038,1.845,1.286,0.526,0.958,0.884,��,6.3,��
2017/07/19,21:40,0.980,1.550,1.039,1.844,1.286,0.528,0.960,0.884,��,6.1,��
2017/07/19,21:50,0.980,1.550,1.042,1.843,1.287,0.525,0.960,0.884,��,6.1,��
2017/07/19,22:00,0.980,1.551,1.042,1.845,1.285,0.527,0.960,0.883,��,6.9,��
2017/07/19,22:10,0.981,1.551,1.039,1.844,1.284,0.526,0.959,0.884,��,7.6,��
2017/07/19,22:20,0.981,1.551,1.038,1.846,1.286,0.526,0.960,0.886,��,7.0,��
2017/07/19,22:30,0.981,1.551,1.038,1.843,1.287,0.526,0.959,0.885,��,7.0,��
2017/07/19,22:40,0.977,1.550,1.040,1.848,1.285,0.525,0.959,0.887,��,7.2,��
2017/07/19,22:50,0.980,1.549,1.038,1.847,1.284,0.528,0.959,0.885,��,6.9,��
2017/07/19,23:00,0.979,1.550,1.039,1.848,1.283,0.525,0.960,0.883,��,6.6,��
2017/07/19,23:10,0.977,1.549,1.038,1.846,1.289,0.526,0.959,0.883,��,5.6,��
2017/07/19,23:20,0.978,1.548,1.040,1.845,1.285,0.526,0.959,0.885,��,4.8,��
2017/07/19,23:30,0.978,1.551,1.039,1.847,1.285,0.525,0.961,0.886,��,4.3,��
2017/07/19,23:40,0.979,1.552,1.040,1.844,1.287,0.525,0.960,0.884,��,4.7,��
2017/07/19,23:50,0.978,1.549,1.040,1.848,1.284,0.527,0.960,0.885,��,4.7,��
